User: anonymous   Login
Location: Buttermere
(51.3333°N, 1.5167°W)
Time: 15:11:35
(UTC+00:00)
Language:

Cosmos 1674 - Orbit

View from above orbital plane
View from above orbital plane
View from above satellite
View from above satellite

Ground track
Ground track

The orbit data is extracted from the following two-line orbital elements,

1 15944U 85069A   20339.47082472  .00001493  00000-0  67456-4 0  9991
2 15944  82.5091  53.2950 0017845  44.6374 315.6294 15.20032147930004
Epoch (UTC): 04 December 2020 11:17:59
Eccentricity: 0.0017845
inclination: 82.5091°
perigee height: 493 km
apogee height: 518 km
right ascension of ascending node: 53.2950°
argument of perigee: 44.6374°
revolutions per day: 15.20032147
mean anomaly at epoch: 315.6294°
orbit number at epoch: 93000

The dashed part of the orbit path shows where the satellite is in the earth's shadow,  

DLR